Temp
16 16 16 16 16 17 17 17 18 19 19 18 18 17 17 17 17 16 16 17 17 17 16 15 15 15 15 16 15 16 17 18 18 19 19 19 19 19 21 22 21 19 18 23 26 26 26 29 30 30 32 32 32 32 31 34 31 32 33 34 33 33 36
15 15 15 15 16 16 17 17 17 18 18 17 17 16 17 16 15 15 15 15 15 16 16 15 14 14 15 16 14 15 15 16 17 17 17 18 18 18 19 22 21 20 20 18 25 25 27 27 28 27 31 30 30 31 31 31 32 33 32 33 33 32 32
14 14 15 15 15 16 16 17 17 17 17 16 16 15 16 16 16 15 14 14 14 14 14 14 13 13 14 15 14 14 15 16 16 17 16 16 18 18 19 21 21 20 18 19 21 25 25 25 26 26 28 30 31 31 31 30 31 32 33 32 31 31 31
14 13 14 13 14 14 15 15 16 16 16 16 16 15 15 15 15 14 14 13 13 13 13 13 12 12 13 13 12 13 14 15 15 16 16 16 17 18 19 21 22 22 20 20 19 23 23 25 25 26 28 30 31 30 30 31 31 31 31 31 31 30 30
13 12 12 12 13 14 14 15 15 16 16 16 17 16 16 15 15 14 14 14 13 15 13 13 12 13 13 13 12 12 13 15 14 15 15 15 17 17 18 20 21 21 22 20 18 20 24 25 25 26 28 29 28 29 29 28 28 29 31 32 33 32 31
11 11 11 12 13 14 14 15 15 15 15 16 16 16 16 15 15 15 14 14 14 13 13 13 13 13 13 12 12 12 13 14 13 13 13 14 15 17 17 17 18 19 19 19 19 20 21 23 22 23 25 27 28 27 27 27 28 28 27 28 29 30 30
10 11 11 12 12 13 14 14 14 14 14 15 15 15 15 14 14 14 15 15 14 14 13 13 13 13 13 12 12 12 12 12 13 13 13 14 14 15 15 15 15 17 17 18 18 20 23 23 24 24 22 26 28 28 28 26 26 27 29 28 28 28 29
9 10 11 11 11 12 13 13 13 13 14 14 14 14 14 15 15 15 14 14 14 14 14 13 13 13 13 13 13 13 13 13 12 13 13 15 15 15 14 14 15 15 16 16 16 17 19 22 23 25 25 27 27 26 27 28 27 25 27 26 25 27 29
9 8 9 10 10 11 11 12 12 13 13 13 13 14 14 15 15 16 15 15 15 14 14 14 14 13 14 15 17 18 18 17 17 13 12 13 15 15 16 16 15 15 15 15 15 16 18 20 21 23 25 24 24 25 25 29 29 26 28 27 26 27 28
7 7 7 8 9 9 10 11 12 15 18 19 17 16 16 16 16 16 16 16 16 16 15 15 15 15 18 18 19 19 20 22 22 22 18 14 14 15 16 17 17 17 17 17 15 16 18 19 20 23 24 24 25 27 28 27 25 24 27 27 24 25 27
6 6 7 7 7 8 9 10 11 17 19 21 23 21 20 19 18 17 16 16 16 16 16 16 16 15 17 19 20 19 21 22 23 23 24 24 23 20 16 14 15 17 19 19 19 20 20 20 20 22 25 26 27 29 28 27 27 25 25 23 22 22 27
5 5 6 7 8 8 9 10 15 19 21 22 24 24 23 22 21 21 20 18 16 17 17 17 17 17 17 16 17 18 18 20 23 24 24 25 25 25 25 24 19 17 17 18 18 19 20 21 20 22 24 25 26 26 27 27 26 25 24 23 23 23 23
5 5 6 6 7 7 9 9 15 19 21 23 24 25 25 23 24 23 22 21 20 18 18 18 18 17 18 17 20 20 18 17 18 21 24 24 25 25 25 25 26 26 22 20 19 19 19 20 21 21 23 26 27 28 26 27 26 26 26 25 24 25 26
4 5 5 6 6 7 8 9 14 19 21 23 25 26 27 25 25 25 24 24 22 21 19 19 19 18 18 19 19 19 19 18 18 17 18 19 20 21 22 25 26 26 27 26 22 21 20 22 23 22 24 27 29 27 25 26 26 28 26 26 25 28 29
4 5 6 6 7 7 8 10 17 20 22 24 25 27 27 26 26 25 25 25 25 23 22 21 20 20 19 19 19 19 20 18 18 17 17 17 17 18 19 20 21 22 23 24 24 24 23 24 25 25 26 27 28 28 28 28 28 29 29 30 30 29 26
6 5 5 7 7 7 8 10 18 21 23 24 26 28 26 26 26 25 25 25 25 25 24 23 22 21 20 20 20 21 25 23 20 18 17 16 16 16 17 18 21 24 25 23 23 23 24 24 26 28 27 28 28 28 29 30 30 30 29 28 26 25 28
5 5 5 6 7 8 9 10 16 21 23 25 27 27 25 26 26 26 25 25 26 26 26 25 23 22 21 21 21 23 25 26 25 19 17 16 16 16 16 16 18 23 26 27 28 28 29 29 29 30 31 32 33 31 30 29 27 26 28 26 24 25 27
4 5 6 7 8 10 10 11 16 21 23 25 27 28 25 25 25 25 25 25 25 26 26 26 27 25 23 22 22 25 26 27 26 22 18 17 16 15 15 16 17 17 19 26 28 28 29 29 30 30 31 32 33 33 32 28 25 28 29 26 27 25 27
4 5 6 8 9 13 13 13 15 20 23 26 28 27 25 25 24 24 24 25 25 26 26 26 27 27 26 24 24 27 28 28 27 23 21 19 17 16 15 16 16 15 15 16 17 20 23 24 27 27 27 28 31 31 31 30 29 30 28 26 27 27 27
5 5 6 8 9 10 12 13 15 18 24 26 26 27 25 24 23 22 23 24 24 24 25 26 26 27 28 29 29 28 29 29 30 26 23 22 19 17 16 19 17 17 17 16 17 18 21 22 24 25 26 27 28 29 30 30 30 30 30 28 27 28 27
4 5 6 8 10 11 13 15 16 19 24 25 25 26 25 23 23 23 23 22 22 22 22 23 25 25 28 29 29 30 30 31 32 31 26 23 21 20 22 23 19 20 21 18 19 20 21 22 23 24 25 25 25 26 28 29 30 30 30 29 28 27 27
3 5 6 8 10 12 14 17 20 19 22 24 24 25 26 23 23 24 23 22 21 21 21 22 24 24 26 28 29 30 30 31 32 32 29 25 27 27 27 24 23 22 21 21 21 21 22 23 23 23 23 23 24 24 26 27 28 28 28 29 30 29 27
3 5 6 8 9 12 15 17 18 21 20 22 23 24 24 25 24 25 24 22 21 21 21 21 21 24 27 28 30 30 30 30 31 30 29 30 29 29 28 27 25 24 23 22 22 23 22 23 23 23 23 23 23 24 24 25 26 26 27 27 28 29 29
5 6 7 7 9 12 15 16 14 17 20 20 22 23 24 24 25 25 23 23 22 22 21 21 22 24 28 29 29 30 30 30 29 28 30 30 30 29 28 27 25 24 24 23 23 22 22 23 24 24 24 24 25 25 25 25 25 25 26 27 27 28 28
5 6 6 8 9 11 14 12 10 9 16 21 21 22 23 23 24 24 24 22 22 22 20 24 27 28 28 28 28 28 28 28 28 28 27 27 27 29 28 27 25 24 24 23 22 22 23 23 24 25 25 26 26 26 26 25 26 25 24 25 27 26 26
4 5 6 8 10 12 13 11 6 8 10 16 18 20 21 23 23 23 23 23 23 24 26 26 26 27 26 25 25 24 23 23 24 24 24 23 23 22 25 27 25 25 24 23 23 23 23 23 24 25 25 26 26 25 25 25 23 22 23 24 24 22 21
4 5 6 8 10 13 12 9 6 6 7 14 16 17 19 20 20 22 22 20 20 22 21 22 24 23 23 23 23 23 22 21 22 21 20 19 19 20 20 21 24 25 25 24 24 24 24 24 25 27 26 25 25 25 25 25 24 23 25 24 24 23 22
4 6 8 8 11 12 10 9 9 9 11 14 16 18 19 19 19 19 19 19 20 21 19 18 20 20 18 17 17 17 18 18 18 19 18 18 18 18 19 20 21 22 21 22 23 24 26 26 26 25 25 25 24 24 25 25 24 24 24 24 24 22 21
6 8 10 12 12 11 10 11 10 12 18 18 20 19 18 18 18 18 19 21 23 19 16 14 14 14 13 12 12 13 13 14 15 16 16 17 17 17 17 17 16 15 16 17 18 19 20 21 24 25 27 26 25 24 24 24 24 25 25 24 24 22 23
12 14 14 12 12 12 11 10 12 18 20 20 21 21 21 21 22 23 22 22 21 18 10 10 7 8 9 10 10 11 12 12 12 12 13 14 16 16 16 15 15 15 15 16 16 17 17 18 20 21 23 25 26 27 27 27 26 25 26 23 22 22 23
17 17 17 14 10 12 16 17 18 18 19 20 20 19 19 20 21 21 21 21 15 11 10 9 7 8 10 11 10 10 10 11 11 11 11 11 12 12 13 14 14 14 15 14 14 15 16 17 18 18 20 22 24 25 26 26 26 26 25 24 23 23 23
15 15 15 15 14 12 12 15 17 17 18 18 18 18 18 19 20 19 19 19 18 10 8 7 6 7 8 9 8 8 10 10 9 10 10 10 10 11 12 13 13 14 12 12 12 13 14 15 15 16 17 18 20 23 25 25 24 24 23 23 24 23 24
13 13 13 13 13 14 14 15 15 16 17 17 16 16 16 17 17 17 16 14 9 7 7 8 8 8 8 8 6 7 7 7 8 8 8 9 9 9 10 11 12 14 11 11 11 12 11 12 14 15 15 16 18 19 21 23 23 24 24 23 22 22 21
10 10 10 11 11 12 14 14 15 15 15 15 14 14 14 13 12 14 13 9 3 3 2 3 4 6 6 6 6 5 5 5 5 5 5 6 6 6 8 9 11 10 10 9 9 8 9 10 11 13 14 14 15 16 19 22 23 23 22 22 22 21 20
-4 3 8 7 7 10 12 12 13 13 13 13 12 11 11 9 3 1 1 1 1 1 0 0 1 0 2 4 3 3 2 2 2 3 2 1 2 3 4 6 8 8 8 7 7 7 7 9 11 11 12 14 14 15 17 20 22 23 23 22 22 22 20
-10 -9 1 7 7 9 10 11 11 11 11 10 10 9 7 -3 -3 -3 -3 -2 -2 -2 -1 -1 -2 -2 -1 1 1 1 -0 -1 -0 0 -1 -1 0 1 2 5 8 10 8 7 5 5 7 8 6 9 11 13 14 15 15 17 21 23 23 23 23 22 20
MSLP
1026.59 1026.47 1026.31 1026.07 1025.88 1025.59 1025.31 1025.11 1024.88 1024.71 1024.52 1024.35 1024.19 1024.07 1023.99 1023.91 1023.88 1023.84 1023.76 1023.67 1023.67 1023.67 1023.72 1023.76 1023.76 1023.79 1023.79 1023.79 1023.79 1023.72 1023.59 1023.47 1023.43 1023.40 1023.32 1023.23 1023.16 1023.08 1022.88 1022.67 1022.59 1022.40 1021.91 1021.28 1021.32 1021.11 1020.91 1020.76 1020.67 1020.35 1020.35 1019.96 1019.59 1019.32 1019.28 1019.28 1019.20 1019.11 1019.03 1018.96 1018.88 1018.79 1018.72
1026.47 1026.35 1026.16 1025.92 1025.64 1025.35 1025.07 1024.88 1024.64 1024.47 1024.28 1024.11 1023.91 1023.79 1023.76 1023.67 1023.64 1023.55 1023.43 1023.43 1023.35 1023.35 1023.35 1023.35 1023.40 1023.40 1023.40 1023.40 1023.43 1023.35 1023.32 1023.23 1023.11 1023.03 1022.99 1022.84 1022.84 1022.79 1022.72 1022.55 1022.43 1022.16 1021.88 1021.52 1021.20 1020.84 1020.67 1020.67 1020.84 1020.52 1020.03 1020.20 1019.79 1019.40 1019.20 1019.08 1018.99 1018.91 1018.91 1018.84 1018.76 1018.76 1018.64
1026.28 1026.11 1025.95 1025.68 1025.35 1025.11 1024.83 1024.59 1024.40 1024.16 1023.99 1023.79 1023.64 1023.47 1023.35 1023.28 1023.23 1023.16 1023.11 1023.08 1022.99 1022.99 1022.99 1022.99 1022.99 1022.99 1023.03 1023.03 1023.08 1023.03 1023.03 1022.99 1022.88 1022.76 1022.59 1022.52 1022.43 1022.32 1022.23 1022.20 1022.11 1022.08 1021.76 1021.55 1021.16 1021.08 1020.55 1020.55 1020.52 1020.59 1020.03 1019.76 1019.72 1019.43 1019.23 1019.08 1018.84 1018.79 1018.67 1018.64 1018.67 1018.64 1018.55
1025.99 1025.92 1025.76 1025.47 1025.19 1024.95 1024.71 1024.44 1024.19 1023.91 1023.67 1023.47 1023.28 1023.16 1022.99 1022.91 1022.84 1022.76 1022.67 1022.67 1022.59 1022.59 1022.64 1022.59 1022.64 1022.59 1022.64 1022.64 1022.64 1022.64 1022.64 1022.59 1022.55 1022.47 1022.32 1022.20 1022.11 1022.08 1021.88 1021.76 1021.64 1021.52 1021.47 1021.16 1021.11 1020.76 1020.84 1020.47 1020.47 1020.08 1019.96 1019.64 1019.47 1019.35 1019.11 1018.96 1018.76 1018.59 1018.55 1018.47 1018.43 1018.47 1018.35
1025.80 1025.68 1025.52 1025.23 1024.95 1024.64 1024.40 1024.11 1023.88 1023.59 1023.35 1023.16 1022.91 1022.67 1022.52 1022.40 1022.32 1022.23 1022.20 1022.16 1022.16 1022.11 1022.20 1022.16 1022.11 1022.03 1022.11 1022.16 1022.20 1022.16 1022.20 1022.16 1022.16 1022.08 1021.99 1021.84 1021.72 1021.64 1021.55 1021.47 1021.32 1021.16 1020.99 1020.91 1020.88 1020.72 1020.47 1020.52 1020.32 1020.11 1019.76 1019.59 1019.43 1018.99 1018.91 1018.72 1018.67 1018.64 1018.43 1018.23 1018.08 1018.08 1018.08
1025.47 1025.40 1025.19 1024.95 1024.64 1024.31 1023.99 1023.76 1023.55 1023.32 1023.08 1022.84 1022.59 1022.32 1022.08 1021.96 1021.88 1021.76 1021.67 1021.59 1021.59 1021.59 1021.59 1021.59 1021.52 1021.52 1021.59 1021.64 1021.72 1021.64 1021.64 1021.64 1021.67 1021.76 1021.67 1021.55 1021.40 1021.23 1021.20 1021.20 1021.11 1020.99 1020.88 1020.76 1020.55 1020.43 1020.28 1020.28 1020.35 1020.16 1019.72 1019.52 1019.40 1019.08 1018.64 1018.55 1018.40 1018.35 1018.40 1018.40 1018.16 1017.96 1017.91
1025.19 1024.99 1024.83 1024.56 1024.28 1023.96 1023.67 1023.43 1023.23 1023.03 1022.76 1022.47 1022.20 1021.96 1021.72 1021.59 1021.43 1021.35 1021.23 1021.08 1020.99 1020.99 1020.99 1020.99 1020.96 1020.96 1021.03 1021.08 1021.08 1021.11 1021.16 1021.20 1021.23 1021.32 1021.28 1021.28 1021.20 1021.08 1020.99 1020.91 1020.88 1020.84 1020.76 1020.52 1020.35 1020.08 1019.91 1019.84 1019.79 1019.91 1019.59 1019.16 1019.03 1018.79 1018.59 1018.43 1018.40 1018.03 1017.91 1017.99 1017.99 1017.79 1017.67
1024.92 1024.68 1024.52 1024.23 1023.99 1023.67 1023.43 1023.16 1022.88 1022.59 1022.32 1022.03 1021.79 1021.55 1021.35 1021.16 1020.96 1020.79 1020.67 1020.52 1020.40 1020.40 1020.35 1020.32 1020.32 1020.32 1020.32 1020.35 1020.35 1020.47 1020.52 1020.64 1020.72 1020.76 1020.79 1020.72 1020.79 1020.72 1020.67 1020.55 1020.52 1020.52 1020.40 1020.28 1020.11 1019.99 1019.91 1019.72 1019.47 1018.99 1018.79 1018.59 1018.47 1018.43 1018.23 1018.16 1018.23 1018.03 1017.67 1017.55 1017.64 1017.52 1017.35
1024.64 1024.40 1024.16 1023.91 1023.64 1023.35 1023.11 1022.84 1022.43 1022.16 1021.84 1021.55 1021.23 1021.08 1020.88 1020.59 1020.40 1020.16 1019.91 1019.79 1019.72 1019.67 1019.64 1019.64 1019.59 1019.59 1019.55 1019.55 1019.52 1019.55 1019.64 1019.79 1019.96 1020.23 1020.28 1020.16 1020.28 1020.20 1020.11 1019.99 1019.96 1019.96 1019.96 1019.88 1019.88 1019.72 1019.59 1019.55 1019.23 1018.64 1018.23 1018.03 1018.16 1018.20 1017.96 1017.72 1017.72 1017.72 1017.55 1017.43 1017.32 1017.08 1017.11
1024.23 1024.04 1023.79 1023.55 1023.28 1023.03 1022.72 1022.40 1021.96 1021.55 1021.11 1020.64 1020.35 1020.16 1020.03 1019.84 1019.59 1019.40 1019.23 1019.03 1018.91 1018.84 1018.84 1018.76 1018.76 1018.64 1018.59 1018.64 1018.64 1018.72 1018.76 1018.76 1018.79 1018.91 1019.16 1019.43 1019.67 1019.67 1019.64 1019.43 1019.28 1019.11 1019.11 1019.20 1019.32 1019.20 1019.16 1019.03 1018.43 1017.96 1017.72 1017.72 1017.64 1017.52 1017.35 1017.43 1017.67 1017.67 1017.23 1017.20 1017.16 1017.03 1016.72
1023.88 1023.67 1023.40 1023.16 1022.84 1022.52 1022.20 1021.79 1021.40 1020.84 1020.28 1019.76 1019.32 1019.08 1018.79 1018.67 1018.55 1018.52 1018.43 1018.23 1018.08 1017.96 1017.91 1017.91 1017.88 1017.88 1017.84 1017.88 1017.88 1017.91 1017.91 1017.96 1017.96 1017.96 1017.91 1017.99 1018.28 1018.64 1018.99 1019.16 1019.11 1018.84 1018.55 1018.32 1018.11 1017.99 1018.08 1017.96 1017.72 1017.40 1017.23 1017.28 1017.23 1016.99 1016.88 1016.88 1016.99 1017.03 1017.03 1017.08 1017.40 1016.96 1016.16
1023.47 1023.23 1022.99 1022.67 1022.35 1021.99 1021.55 1021.16 1020.64 1020.08 1019.47 1018.91 1018.43 1018.11 1017.88 1017.59 1017.35 1017.11 1017.16 1017.28 1017.23 1017.08 1017.03 1016.99 1017.03 1016.99 1017.11 1017.20 1017.16 1017.23 1017.35 1017.32 1017.23 1017.20 1017.20 1017.23 1017.32 1017.35 1017.55 1017.88 1018.23 1018.35 1018.32 1018.08 1017.99 1017.79 1017.35 1017.23 1017.20 1017.11 1017.03 1017.03 1016.99 1016.96 1016.76 1016.59 1016.59 1016.67 1016.67 1016.84 1016.88 1016.67 1016.32
1022.99 1022.72 1022.47 1022.23 1021.91 1021.47 1021.03 1020.64 1020.03 1019.52 1018.84 1018.28 1017.79 1017.32 1016.99 1016.67 1016.32 1016.08 1015.91 1015.91 1015.99 1016.16 1016.20 1016.23 1016.28 1016.28 1016.32 1016.32 1016.35 1016.55 1016.64 1016.76 1016.79 1016.67 1016.64 1016.64 1016.67 1016.72 1016.76 1016.79 1016.88 1017.08 1017.35 1017.55 1017.59 1017.40 1017.20 1016.99 1016.96 1016.99 1016.67 1016.59 1016.59 1016.52 1016.40 1016.16 1016.16 1016.20 1016.16 1016.23 1016.28 1015.99 1015.79
1022.55 1022.20 1021.96 1021.67 1021.40 1020.99 1020.55 1020.11 1019.52 1018.91 1018.28 1017.67 1017.11 1016.59 1016.11 1015.72 1015.35 1015.08 1014.88 1014.79 1014.84 1015.03 1015.23 1015.40 1015.55 1015.59 1015.52 1015.47 1015.67 1015.72 1015.79 1015.99 1016.11 1016.28 1016.47 1016.47 1016.40 1016.28 1016.16 1016.11 1016.11 1016.16 1016.16 1016.32 1016.52 1016.64 1016.52 1016.43 1016.64 1016.47 1016.28 1016.16 1016.23 1016.32 1016.23 1015.88 1015.72 1015.43 1015.52 1015.67 1015.59 1015.11 1014.91
1022.03 1021.67 1021.40 1021.11 1020.84 1020.52 1019.99 1019.47 1018.84 1018.20 1017.55 1016.99 1016.47 1015.88 1015.32 1014.91 1014.43 1014.03 1013.79 1013.76 1013.84 1013.99 1014.20 1014.43 1014.67 1014.79 1014.72 1014.64 1014.84 1014.91 1014.99 1015.23 1015.35 1015.59 1015.84 1015.99 1016.03 1015.91 1015.84 1015.84 1015.79 1015.72 1015.67 1015.64 1015.59 1015.64 1015.76 1015.96 1015.96 1015.99 1015.96 1015.72 1015.84 1015.96 1015.79 1015.67 1015.47 1015.16 1014.96 1014.67 1014.52 1014.64 1014.91
1021.52 1021.28 1020.99 1020.67 1020.40 1020.03 1019.47 1018.79 1018.16 1017.59 1016.96 1016.40 1015.88 1015.16 1014.67 1014.20 1013.59 1013.11 1012.91 1012.91 1012.96 1013.11 1013.35 1013.59 1013.84 1014.03 1014.08 1013.99 1014.03 1013.96 1013.99 1014.20 1014.52 1014.96 1015.11 1015.28 1015.28 1015.35 1015.35 1015.35 1015.08 1015.11 1015.23 1015.28 1015.32 1015.32 1015.32 1015.40 1015.43 1015.47 1015.52 1015.32 1015.40 1015.47 1015.40 1015.23 1015.03 1014.79 1014.64 1014.59 1014.55 1014.59 1014.43
1021.23 1020.96 1020.67 1020.28 1019.91 1019.55 1018.99 1018.35 1017.67 1017.08 1016.43 1015.88 1015.23 1014.59 1014.20 1013.76 1013.32 1012.88 1012.55 1012.43 1012.40 1012.52 1012.59 1012.79 1013.03 1013.28 1013.40 1013.35 1013.32 1013.16 1013.23 1013.28 1013.52 1014.08 1014.35 1014.43 1014.52 1014.59 1014.79 1014.67 1014.55 1014.64 1014.59 1014.59 1014.67 1014.76 1014.88 1014.96 1014.99 1014.88 1014.84 1014.76 1014.67 1014.79 1014.72 1014.79 1014.67 1014.35 1014.11 1014.08 1013.96 1013.88 1013.76
1020.91 1020.55 1020.28 1019.91 1019.40 1018.99 1018.59 1017.88 1017.20 1016.55 1015.91 1015.40 1014.67 1014.16 1013.88 1013.59 1013.23 1012.88 1012.55 1012.32 1012.20 1012.23 1012.28 1012.23 1012.23 1012.40 1012.55 1012.67 1012.59 1012.40 1012.43 1012.43 1012.64 1013.03 1013.35 1013.67 1013.79 1013.99 1014.08 1013.79 1013.91 1014.35 1014.35 1014.20 1014.08 1014.11 1014.20 1014.32 1014.35 1014.28 1014.20 1014.11 1014.08 1014.03 1014.11 1014.23 1014.08 1013.55 1013.64 1013.64 1013.40 1013.28 1013.20
1020.55 1020.08 1019.59 1019.28 1018.91 1018.35 1017.99 1017.47 1016.88 1016.20 1015.67 1014.96 1014.35 1013.91 1013.76 1013.55 1013.28 1012.84 1012.55 1012.35 1012.20 1012.03 1011.99 1011.91 1011.79 1011.67 1011.67 1011.79 1011.72 1011.64 1011.59 1011.55 1011.76 1012.08 1012.28 1012.59 1013.03 1013.20 1013.16 1012.59 1013.11 1013.72 1013.99 1014.11 1014.11 1013.88 1013.76 1013.67 1013.67 1013.72 1013.67 1013.52 1013.52 1013.55 1013.47 1013.55 1013.47 1013.28 1013.23 1013.11 1012.96 1012.96 1012.91
1020.23 1019.76 1019.16 1018.72 1018.47 1018.03 1017.55 1017.16 1016.52 1016.03 1015.23 1014.72 1014.32 1013.88 1013.72 1013.59 1013.32 1012.91 1012.55 1012.43 1012.32 1012.11 1011.84 1011.67 1011.47 1011.23 1011.03 1010.84 1010.84 1010.79 1010.76 1010.72 1010.67 1010.91 1011.23 1011.64 1012.11 1012.20 1011.91 1011.55 1012.64 1012.88 1013.16 1013.32 1013.40 1013.40 1013.28 1013.20 1013.28 1013.28 1013.23 1013.16 1013.03 1012.99 1012.96 1012.88 1012.84 1012.67 1012.55 1012.59 1012.59 1012.55 1012.64
1019.88 1019.43 1018.88 1018.35 1017.96 1017.52 1016.88 1016.43 1015.99 1015.43 1014.99 1014.67 1014.32 1013.91 1013.67 1013.55 1013.28 1012.91 1012.59 1012.43 1012.40 1012.28 1012.03 1011.67 1011.35 1011.11 1010.88 1010.55 1010.28 1010.11 1010.03 1009.91 1009.72 1009.67 1010.11 1010.59 1010.79 1010.52 1010.20 1011.11 1011.84 1011.96 1012.20 1012.47 1012.59 1012.64 1012.59 1012.59 1012.59 1012.67 1012.72 1012.67 1012.59 1012.52 1012.47 1012.43 1012.35 1012.28 1012.20 1012.23 1012.23 1012.32 1012.40
1019.52 1019.11 1018.47 1017.91 1017.43 1016.99 1016.43 1015.79 1015.40 1015.11 1014.91 1014.67 1014.32 1013.96 1013.67 1013.43 1013.20 1012.84 1012.52 1012.35 1012.28 1012.23 1012.11 1011.84 1011.40 1011.08 1010.72 1010.35 1010.08 1009.79 1009.59 1009.35 1009.11 1008.91 1009.08 1009.43 1009.35 1009.40 1009.99 1010.47 1010.76 1011.16 1011.47 1011.67 1011.76 1011.84 1011.91 1011.91 1011.99 1012.08 1012.11 1012.08 1012.03 1011.96 1011.91 1011.96 1011.96 1011.88 1011.84 1011.84 1011.84 1011.96 1012.11
1018.91 1018.47 1017.96 1017.43 1016.99 1016.52 1015.96 1015.43 1015.16 1014.96 1014.79 1014.59 1014.35 1014.03 1013.72 1013.32 1012.99 1012.64 1012.47 1012.35 1012.08 1011.96 1011.88 1011.64 1011.35 1010.96 1010.52 1010.11 1009.76 1009.40 1009.08 1008.91 1008.76 1008.67 1008.52 1008.55 1008.67 1008.84 1009.20 1009.67 1010.08 1010.32 1010.64 1010.88 1010.96 1011.08 1011.16 1011.20 1011.28 1011.40 1011.35 1011.32 1011.32 1011.28 1011.32 1011.40 1011.43 1011.43 1011.52 1011.59 1011.59 1011.59 1011.64
1018.23 1017.84 1017.47 1017.11 1016.64 1016.08 1015.55 1015.20 1015.08 1014.96 1014.72 1014.52 1014.28 1013.96 1013.55 1013.16 1012.79 1012.55 1012.40 1012.20 1011.88 1011.64 1011.47 1011.28 1010.96 1010.55 1010.16 1009.84 1009.47 1009.16 1008.91 1008.72 1008.67 1008.59 1008.35 1008.16 1008.16 1008.32 1008.59 1009.03 1009.35 1009.67 1009.88 1010.08 1010.23 1010.40 1010.47 1010.52 1010.55 1010.64 1010.67 1010.64 1010.55 1010.59 1010.72 1010.91 1010.99 1011.08 1011.16 1011.23 1011.28 1011.28 1011.32
1017.88 1017.55 1017.23 1016.84 1016.32 1015.76 1015.23 1015.03 1015.03 1014.96 1014.72 1014.40 1014.16 1013.79 1013.35 1012.96 1012.64 1012.40 1012.20 1011.96 1011.64 1011.35 1011.16 1010.79 1010.32 1010.08 1009.88 1009.64 1009.35 1009.08 1008.88 1008.79 1008.67 1008.55 1008.55 1008.43 1008.23 1007.99 1008.03 1008.40 1008.67 1008.99 1009.32 1009.59 1009.72 1009.79 1009.88 1009.91 1009.91 1009.96 1009.91 1009.91 1010.11 1010.32 1010.52 1010.64 1010.59 1010.59 1010.72 1010.79 1010.88 1010.91 1010.91
1017.64 1017.32 1016.88 1016.43 1015.91 1015.43 1014.91 1014.84 1014.91 1014.79 1014.59 1014.35 1014.08 1013.72 1013.23 1012.79 1012.47 1012.20 1011.91 1011.67 1011.32 1010.99 1010.67 1010.43 1010.16 1009.88 1009.84 1009.79 1009.64 1009.55 1009.43 1009.28 1009.16 1009.08 1008.96 1008.84 1008.64 1008.52 1008.11 1007.88 1008.11 1008.43 1008.76 1008.96 1009.11 1009.28 1009.43 1009.40 1009.47 1009.59 1009.55 1009.72 1009.99 1010.16 1010.16 1010.16 1010.20 1010.35 1010.52 1010.64 1010.67 1010.79 1010.91
1017.35 1016.88 1016.52 1015.99 1015.52 1014.91 1014.67 1014.72 1014.67 1014.55 1014.43 1014.20 1013.84 1013.40 1012.96 1012.59 1012.28 1011.96 1011.72 1011.52 1011.20 1010.84 1010.59 1010.35 1010.16 1010.20 1010.20 1010.08 1009.91 1009.84 1009.79 1009.64 1009.52 1009.43 1009.35 1009.28 1009.16 1008.96 1008.88 1008.64 1008.16 1007.96 1008.08 1008.35 1008.59 1008.76 1008.88 1008.91 1008.99 1009.16 1009.40 1009.52 1009.59 1009.59 1009.47 1009.59 1009.76 1009.96 1009.96 1010.20 1010.23 1010.28 1010.40
1017.03 1016.43 1015.91 1015.72 1015.08 1014.72 1014.79 1014.72 1014.55 1014.40 1014.23 1013.88 1013.43 1012.96 1012.59 1012.32 1012.08 1011.84 1011.55 1011.23 1010.84 1010.52 1010.43 1010.43 1010.43 1010.43 1010.52 1010.40 1010.23 1010.11 1010.03 1009.91 1009.84 1009.79 1009.67 1009.55 1009.47 1009.35 1009.20 1009.03 1008.79 1008.59 1008.55 1008.52 1008.52 1008.43 1008.43 1008.47 1008.64 1008.84 1008.88 1008.91 1009.08 1009.08 1008.91 1009.08 1009.32 1009.40 1009.43 1009.67 1009.88 1010.03 1009.99
1016.32 1015.91 1015.47 1015.03 1014.84 1014.88 1014.72 1014.59 1014.43 1014.28 1013.84 1013.43 1012.99 1012.64 1012.35 1012.23 1011.99 1011.64 1011.08 1010.59 1010.32 1010.43 1010.55 1010.64 1010.67 1010.76 1010.79 1010.79 1010.72 1010.59 1010.47 1010.35 1010.20 1010.11 1010.03 1009.88 1009.72 1009.67 1009.47 1009.43 1009.43 1009.47 1009.47 1009.35 1009.23 1008.99 1008.91 1008.79 1008.59 1008.35 1008.20 1008.20 1008.35 1008.40 1008.40 1008.55 1008.76 1008.84 1008.91 1009.16 1009.40 1009.43 1009.43
1015.32 1014.96 1014.88 1014.99 1014.91 1014.84 1014.72 1014.55 1014.28 1013.84 1013.40 1013.08 1012.72 1012.43 1012.35 1012.16 1011.76 1011.16 1010.72 1010.47 1010.52 1010.64 1010.76 1010.88 1011.08 1011.11 1011.08 1011.16 1011.16 1010.99 1010.88 1010.79 1010.72 1010.64 1010.47 1010.32 1010.08 1009.99 1009.84 1009.84 1009.84 1009.79 1009.79 1009.67 1009.59 1009.52 1009.35 1009.16 1008.96 1008.79 1008.52 1008.11 1007.76 1007.55 1007.59 1007.79 1008.11 1008.28 1008.35 1008.67 1008.99 1009.11 1009.03
1014.88 1014.79 1014.67 1014.72 1014.91 1014.79 1014.52 1014.28 1013.96 1013.59 1013.28 1012.88 1012.64 1012.55 1012.40 1012.11 1011.59 1011.23 1010.96 1010.76 1010.84 1011.03 1011.23 1011.35 1011.52 1011.59 1011.52 1011.47 1011.47 1011.40 1011.23 1011.16 1010.99 1010.88 1010.76 1010.64 1010.43 1010.32 1010.23 1010.16 1010.08 1010.03 1009.99 1009.96 1009.88 1009.76 1009.55 1009.35 1009.16 1008.91 1008.64 1008.32 1007.88 1007.52 1007.23 1007.35 1007.55 1007.72 1007.99 1008.23 1008.43 1008.55 1008.59
1015.16 1015.08 1014.96 1014.84 1014.88 1014.76 1014.64 1014.23 1013.84 1013.55 1013.16 1012.91 1012.79 1012.72 1012.52 1012.16 1011.79 1011.59 1011.35 1011.20 1011.11 1011.47 1011.67 1011.72 1011.84 1011.91 1011.91 1011.88 1011.91 1011.88 1011.67 1011.55 1011.40 1011.23 1011.11 1010.96 1010.72 1010.59 1010.52 1010.40 1010.28 1010.11 1010.11 1010.08 1009.99 1009.84 1009.72 1009.55 1009.40 1009.20 1008.99 1008.72 1008.35 1007.88 1007.40 1007.28 1007.40 1007.55 1007.72 1007.88 1007.96 1007.99 1008.08
1015.55 1015.47 1015.32 1015.20 1015.03 1014.76 1014.35 1014.08 1013.84 1013.47 1013.23 1013.11 1012.96 1012.84 1012.72 1012.40 1012.16 1012.03 1011.99 1011.91 1012.11 1012.32 1012.20 1012.08 1012.03 1012.11 1012.20 1012.23 1012.35 1012.32 1012.23 1012.08 1011.96 1011.79 1011.59 1011.40 1011.20 1011.03 1010.84 1010.64 1010.40 1010.20 1010.11 1010.03 1009.91 1009.79 1009.79 1009.67 1009.55 1009.40 1009.16 1008.91 1008.67 1008.35 1007.84 1007.32 1007.20 1007.23 1007.43 1007.55 1007.72 1007.88 1007.96
1015.99 1015.84 1015.59 1015.43 1015.16 1014.84 1014.43 1014.16 1013.84 1013.64 1013.47 1013.32 1013.23 1013.08 1012.91 1012.76 1012.67 1012.64 1012.72 1012.84 1013.28 1013.32 1013.32 1013.11 1012.91 1012.72 1012.67 1012.64 1012.72 1012.76 1012.76 1012.67 1012.59 1012.43 1012.28 1012.03 1011.84 1011.59 1011.20 1010.84 1010.47 1010.20 1010.08 1009.96 1009.91 1009.88 1009.76 1009.64 1009.52 1009.32 1009.11 1008.91 1008.76 1008.47 1007.99 1007.35 1006.99 1006.99 1007.16 1007.32 1007.40 1007.52 1007.84
1016.55 1016.43 1016.03 1015.67 1015.43 1014.99 1014.59 1014.35 1014.08 1013.96 1013.79 1013.64 1013.55 1013.43 1013.32 1013.35 1013.59 1013.76 1013.96 1013.88 1013.99 1013.99 1014.03 1013.96 1013.88 1013.84 1013.55 1013.23 1013.16 1013.28 1013.28 1013.28 1013.11 1012.91 1012.96 1012.88 1012.47 1012.03 1011.55 1011.08 1010.59 1010.28 1010.16 1010.03 1009.91 1009.79 1009.72 1009.55 1009.40 1009.23 1009.08 1008.88 1008.64 1008.40 1007.99 1007.32 1006.76 1006.64 1006.67 1006.79 1006.96 1007.11 1007.55
1016.76 1016.76 1016.52 1015.79 1015.47 1015.16 1014.88 1014.55 1014.40 1014.28 1014.11 1013.99 1013.96 1013.99 1013.99 1014.43 1014.64 1014.64 1014.64 1014.59 1014.55 1014.59 1014.59 1014.55 1014.47 1014.43 1014.20 1013.88 1013.76 1013.72 1013.67 1013.59 1013.47 1013.35 1013.47 1013.35 1013.08 1012.72 1012.16 1011.43 1010.72 1010.40 1010.28 1010.16 1010.03 1009.88 1009.72 1009.55 1009.43 1009.32 1009.11 1008.84 1008.55 1008.32 1008.03 1007.59 1006.84 1006.32 1006.23 1006.32 1006.43 1006.64 1007.03
Wind_Speed
8 9 9 9 10 10 10 11 11 10 10 10 9 8 8 8 8 9 8 8 9 8 7 8 8 8 7 6 7 6 6 6 6 5 6 5 4 5 5 6 6 9 10 8 4 7 7 7 7 10 8 11 9 9 5 4 4 5 5 5 5 5 7
8 8 10 10 11 12 11 12 12 11 11 11 10 9 7 8 9 9 9 8 9 9 7 7 8 8 8 6 7 6 7 6 7 6 7 6 7 7 7 6 7 8 9 10 6 9 5 7 5 11 9 8 10 10 7 8 7 5 4 6 6 5 6
8 9 11 12 12 12 11 12 11 11 10 9 10 10 9 9 9 10 10 10 10 9 8 8 8 8 6 5 6 6 7 6 7 7 7 6 5 7 8 8 8 8 10 10 8 7 11 7 6 7 11 10 8 7 7 8 8 7 6 4 5 5 5
9 9 11 12 12 12 12 12 11 12 10 11 11 10 10 9 10 10 10 10 10 9 8 9 8 8 7 6 7 7 6 6 7 8 8 9 7 6 6 6 8 10 9 9 9 7 8 8 8 9 9 10 9 9 9 8 8 8 7 6 5 5 6
7 9 10 11 12 12 12 12 12 12 12 12 11 11 10 9 9 9 10 10 10 10 10 10 10 10 9 8 9 8 8 8 8 8 8 9 8 8 7 6 6 7 8 8 9 8 7 6 8 9 11 11 11 10 7 5 6 6 8 8 7 5 5
7 8 11 12 12 12 13 12 12 12 13 13 12 12 11 10 9 9 9 9 9 9 9 10 10 10 10 10 10 10 9 8 8 6 7 7 8 8 7 8 7 7 7 8 8 7 8 7 8 9 10 9 9 10 9 8 8 7 5 6 8 7 5
9 10 11 12 12 12 12 12 12 12 13 13 13 11 11 10 10 10 10 10 10 10 10 10 11 11 10 11 11 11 11 10 10 9 9 9 8 7 7 8 8 7 8 9 9 9 10 9 8 9 10 8 8 10 10 10 9 11 8 7 7 8 5
10 10 10 11 11 12 11 12 12 12 12 12 11 10 11 10 11 11 11 11 11 10 10 11 11 12 12 12 12 12 11 11 11 9 10 10 8 8 9 9 8 8 8 9 9 9 9 9 10 9 9 9 8 8 9 9 9 11 10 8 5 7 7
10 11 11 11 11 12 11 11 12 10 10 10 12 11 11 12 13 12 12 11 12 11 11 11 11 12 12 14 17 20 18 16 15 10 11 10 9 10 10 9 9 9 9 9 8 9 9 10 12 11 10 8 8 10 11 9 8 8 7 6 6 6 5
9 9 10 11 12 11 10 10 9 14 22 21 13 10 9 10 12 12 12 11 11 11 12 12 12 13 20 22 24 24 25 26 25 24 16 11 10 11 11 11 10 9 9 9 9 10 9 12 11 9 8 8 9 10 11 11 10 10 9 8 8 7 6
9 9 9 10 11 11 10 10 10 21 22 23 24 17 12 10 10 11 11 12 13 13 12 12 13 12 16 19 21 21 26 25 26 26 27 27 24 18 13 11 12 11 8 9 10 9 11 11 10 10 8 8 9 11 12 11 10 10 10 8 8 11 9
9 9 9 9 10 11 11 11 17 23 23 24 24 21 13 10 9 11 12 12 12 12 12 12 12 11 11 12 14 14 16 22 26 26 26 27 26 26 27 24 16 11 10 10 9 9 8 7 9 8 7 7 8 8 8 7 7 7 9 9 9 9 10
9 9 8 9 10 11 11 10 18 22 24 24 24 24 20 11 12 11 11 12 13 13 13 11 11 11 10 11 19 17 15 15 16 24 29 27 27 27 27 27 29 28 17 10 12 11 12 11 7 9 10 9 8 8 10 8 8 8 9 9 9 10 10
10 9 9 9 9 10 10 11 17 23 24 23 24 23 20 12 12 12 12 13 12 12 12 12 11 10 11 11 11 12 14 13 14 14 14 16 15 14 20 26 29 29 32 25 15 12 12 9 8 10 9 9 8 10 9 10 9 9 9 10 11 13 12
9 8 8 8 8 9 10 11 20 22 24 23 23 23 20 12 13 12 11 11 11 12 12 12 12 12 13 12 10 11 14 13 14 13 12 13 15 15 14 13 14 16 16 16 15 15 14 13 13 11 11 12 9 9 10 10 12 12 10 11 11 9 4
7 8 9 9 9 9 12 12 20 21 23 23 22 24 13 10 11 10 10 10 10 10 10 10 11 11 12 13 12 15 22 20 13 12 14 14 14 14 14 14 16 21 20 16 14 12 11 10 10 13 12 13 11 10 11 12 12 11 9 7 6 7 7
8 7 9 10 10 11 11 11 17 21 22 22 22 17 8 7 8 7 7 8 8 8 9 9 10 11 11 12 13 17 22 23 21 12 14 15 15 13 12 13 14 23 29 30 31 29 28 25 24 26 27 27 27 19 15 11 11 12 10 8 6 7 7
8 8 8 10 11 10 11 11 16 22 22 22 21 16 7 7 7 6 6 5 4 5 6 9 16 15 12 12 13 19 22 23 19 13 14 14 15 16 15 14 12 9 14 25 28 30 31 30 28 29 30 30 28 27 22 14 12 12 8 9 9 7 6
8 9 9 8 10 16 14 12 15 21 21 19 19 12 6 7 7 6 5 6 5 4 5 6 10 18 17 14 15 23 23 24 19 13 14 14 13 14 16 16 10 11 11 10 12 14 17 19 24 21 18 17 26 28 23 17 15 11 11 10 8 7 5
8 10 10 9 9 10 11 11 11 13 17 16 17 15 8 6 7 6 5 4 5 6 5 5 6 8 15 21 24 24 24 23 24 15 13 12 10 13 17 12 9 11 10 11 12 12 13 15 13 14 14 14 14 14 15 14 13 12 10 9 8 7 7
8 9 10 9 9 10 10 9 10 8 14 16 16 15 12 6 7 7 6 3 5 5 6 6 6 5 9 14 17 19 21 21 21 18 12 14 13 17 16 8 8 12 17 11 11 11 11 10 10 11 11 10 11 10 9 10 9 9 9 8 8 7 8
8 8 9 9 8 9 10 10 12 5 10 14 16 15 15 8 6 8 7 5 3 5 5 7 7 6 10 15 15 15 17 20 20 23 10 14 22 24 21 13 10 9 9 10 9 9 9 9 9 9 9 9 10 9 9 9 9 9 9 9 8 9 8
8 7 8 8 7 7 9 8 5 10 8 13 15 15 15 14 10 12 8 6 5 4 6 5 6 8 14 16 17 17 16 12 12 9 6 12 25 24 24 18 10 10 9 9 9 9 9 9 9 9 9 9 9 9 9 9 8 8 8 8 8 9 9
6 6 7 7 8 7 7 5 4 6 11 10 14 15 16 15 14 13 8 7 6 5 6 6 6 8 15 17 17 17 14 12 7 6 9 9 9 21 21 13 10 9 9 9 9 9 9 9 9 9 9 9 9 9 8 7 7 7 8 9 9 9 9
6 6 6 7 7 7 6 4 4 5 6 12 14 16 15 15 15 14 14 8 6 6 5 9 14 14 14 13 12 12 10 7 8 6 8 9 9 6 9 10 10 10 8 9 9 9 8 8 9 9 10 9 7 6 4 4 6 7 7 8 8 6 5
6 6 6 7 6 8 6 3 3 5 4 6 10 11 14 16 16 14 14 13 10 13 13 14 13 12 9 7 8 6 5 5 6 10 10 10 9 6 4 6 9 8 9 9 9 8 9 9 8 8 9 7 6 6 8 7 7 6 6 6 6 4 4
6 6 6 6 7 6 3 4 3 4 4 6 7 7 8 9 8 12 13 9 8 8 7 7 5 5 7 6 8 7 7 6 7 6 6 5 5 5 4 6 2 6 9 9 8 8 8 8 8 7 6 7 8 9 9 7 7 7 7 7 7 7 7
7 7 6 6 6 2 3 4 4 4 6 7 7 7 7 6 6 7 7 7 8 5 1 2 4 5 4 5 5 5 4 5 5 5 5 5 4 5 6 6 6 7 5 2 1 2 5 7 7 7 8 8 8 9 9 7 7 8 8 7 7 6 8
8 8 7 4 3 3 3 3 4 5 9 10 13 11 7 6 7 8 9 9 5 3 2 3 5 4 5 5 5 4 4 5 5 4 5 5 5 5 5 5 5 5 4 3 3 2 2 2 3 5 7 8 9 9 9 7 8 8 8 7 7 11 8
8 2 1 2 1 2 4 4 6 13 16 15 15 14 14 14 17 14 7 4 7 4 3 4 4 5 4 4 4 4 4 5 4 4 4 4 5 5 4 4 4 4 3 3 2 2 2 2 2 4 5 5 6 8 8 8 9 8 8 7 9 9 8
8 9 8 6 3 4 9 11 13 13 14 14 13 13 14 15 15 9 8 6 4 5 4 4 4 4 4 4 4 4 4 4 4 4 4 5 4 3 4 4 3 3 3 3 3 3 2 3 3 3 4 4 5 5 5 6 7 7 7 7 8 9 8
9 10 9 8 7 5 4 8 11 12 11 11 12 12 12 13 10 9 9 7 7 5 4 4 4 4 3 4 4 4 5 5 5 5 5 4 4 4 4 4 3 3 2 3 2 2 2 2 3 3 3 4 5 5 5 4 5 6 6 7 8 9 8
9 10 8 8 7 7 8 8 8 10 10 11 11 12 10 9 9 13 11 9 7 4 4 3 3 3 3 4 3 4 4 5 5 5 5 5 5 5 5 5 5 5 3 2 3 2 2 3 3 4 4 4 4 5 6 5 6 7 7 8 8 7 6
9 10 9 8 7 8 9 9 9 9 9 11 11 11 8 6 5 12 16 12 5 5 4 4 4 4 4 4 4 4 5 5 6 6 6 6 5 5 5 6 5 4 4 4 4 4 3 3 3 4 4 4 4 4 6 6 6 7 7 7 8 8 7
5 7 9 5 5 8 10 9 8 9 10 11 12 12 8 9 7 6 6 7 6 5 5 5 4 4 4 4 4 5 5 5 5 5 6 6 7 7 6 6 5 5 4 5 5 4 4 4 4 4 4 4 5 4 5 6 6 7 8 9 9 8 7
2 3 6 7 6 8 10 10 9 10 11 12 14 15 13 7 6 5 5 4 5 4 5 4 4 4 4 4 4 4 4 4 4 4 5 5 6 7 7 7 5 5 5 4 4 4 4 5 4 4 5 5 5 6 6 7 8 7 8 9 9 8 8
Wind_Direction
293 293 292 290 288 285 284 282 279 277 276 275 271 261 257 255 250 249 249 249 249 245 245 245 245 246 246 246 251 257 263 264 257 251 247 245 245 255 257 259 256 261 272 268 274 285 283 291 305 302 304 299 302 305 305 289 286 288 292 289 280 281 291
292 292 292 289 287 284 281 280 277 275 273 270 267 261 258 260 258 258 257 254 253 248 245 243 243 244 245 240 243 243 252 258 264 257 250 241 238 239 242 238 254 259 262 273 263 276 284 287 291 288 289 287 298 298 304 304 296 280 263 272 268 263 261
291 292 292 288 285 283 281 280 280 277 272 270 270 266 260 255 254 253 252 249 248 248 244 244 242 242 240 242 248 246 248 249 255 260 259 254 237 242 239 236 238 252 261 267 267 265 276 280 290 280 289 288 281 287 290 300 299 293 284 256 252 257 257
287 288 289 287 283 279 277 277 274 273 269 266 262 260 257 253 249 248 247 247 248 246 244 243 245 244 240 239 244 247 246 244 246 249 254 259 257 252 249 238 234 236 247 257 266 251 268 275 280 282 283 285 284 279 284 276 280 285 279 280 266 250 256
283 283 285 283 280 278 275 275 276 276 273 272 269 266 263 257 251 246 243 242 242 241 241 242 242 243 240 239 245 246 248 247 246 242 244 248 251 253 254 256 249 246 245 254 256 260 250 268 267 274 276 280 285 287 276 280 273 272 274 270 262 254 249
282 282 283 280 278 276 275 273 271 270 271 270 268 266 262 258 256 254 249 245 241 239 237 240 240 241 238 238 239 243 244 243 243 244 247 248 247 247 252 252 254 254 256 254 255 257 266 251 266 268 264 263 261 271 280 277 276 276 266 269 276 264 253
285 285 283 280 278 277 276 276 273 270 267 264 263 262 259 256 254 253 254 251 247 241 238 236 238 237 233 233 233 235 236 238 241 243 247 245 246 246 243 246 247 250 254 254 261 260 259 262 248 245 259 255 254 256 259 270 276 270 261 245 237 259 256
286 285 281 280 278 277 277 274 272 269 266 263 261 259 258 256 253 251 248 249 247 242 238 235 234 234 232 230 231 231 232 229 236 234 242 241 243 240 239 242 243 246 248 252 256 259 263 263 264 245 237 246 251 257 252 243 247 256 259 254 241 223 237
283 281 279 277 276 277 274 272 269 266 262 259 256 251 253 250 250 246 245 243 243 239 237 236 234 232 231 229 231 229 229 227 224 225 236 237 235 244 243 241 238 240 242 247 247 254 252 253 254 255 253 244 233 236 246 244 231 246 250 255 264 264 235
275 272 273 276 276 274 270 266 264 266 265 262 257 246 235 235 239 238 235 235 238 241 236 235 233 234 232 232 234 235 236 238 239 236 230 226 227 234 240 246 246 237 232 232 235 236 239 243 243 243 242 241 236 236 238 241 243 254 257 258 266 273 244
272 270 270 272 274 271 264 262 261 267 268 268 266 262 252 234 228 227 230 231 235 246 239 237 234 234 235 237 239 238 238 238 240 242 243 240 232 224 222 232 239 245 244 240 234 226 220 229 241 248 249 251 259 244 230 227 225 230 241 242 250 261 268
271 270 268 267 269 270 270 269 271 274 275 274 274 273 266 254 241 234 233 231 228 234 237 237 236 234 231 229 230 232 236 239 240 241 241 242 242 242 236 231 227 232 235 235 244 249 241 230 236 248 244 255 260 260 246 234 223 224 228 230 230 240 245
278 273 269 265 268 270 272 271 276 279 279 279 279 278 275 261 251 245 235 230 229 229 232 233 235 240 233 231 232 233 231 230 235 240 241 243 244 243 242 241 237 233 230 232 242 245 246 242 246 248 249 248 258 267 268 243 228 227 231 227 229 234 243
274 272 267 265 265 270 272 272 277 279 280 281 282 282 282 271 264 251 240 234 228 226 226 226 229 236 240 234 227 227 229 226 228 229 232 239 242 242 242 241 240 240 237 233 228 228 234 230 219 240 254 254 253 262 265 261 245 230 226 227 228 231 234
276 272 271 271 272 273 275 272 278 282 284 285 286 286 285 276 266 254 243 235 228 224 224 222 223 228 237 240 228 224 224 225 225 223 223 226 230 234 237 236 238 239 239 240 238 235 236 239 240 242 250 256 253 255 264 269 272 268 251 235 235 243 234
274 278 279 278 279 279 278 278 282 286 288 289 291 289 290 283 279 265 244 233 225 222 221 221 220 225 233 238 237 234 234 231 221 219 222 225 227 229 231 232 232 233 236 240 242 246 245 240 246 248 247 254 257 256 257 259 258 256 253 252 236 229 220
279 276 280 282 281 279 278 278 285 288 290 293 296 301 300 305 310 306 274 243 233 226 224 222 218 220 228 236 238 239 239 237 233 213 220 224 228 228 227 233 231 235 237 238 240 241 243 246 250 253 254 256 258 256 253 251 249 248 247 235 212 222 219
278 277 272 275 276 273 275 278 284 290 294 298 304 319 329 325 313 313 322 292 250 236 234 233 231 220 223 230 238 243 241 239 233 221 218 221 227 229 229 234 225 218 233 240 242 239 239 241 244 248 252 255 256 257 257 251 243 247 241 243 234 230 214
279 282 277 267 273 279 279 279 282 288 293 302 316 327 340 328 315 312 333 334 312 282 253 247 250 244 234 225 233 241 243 242 237 218 218 217 219 228 231 233 210 212 218 223 232 240 237 237 239 244 250 254 257 259 261 258 254 248 238 235 234 228 228
275 281 280 280 276 277 274 271 273 277 295 314 317 328 337 329 316 320 325 333 332 317 307 294 281 263 258 248 239 237 242 247 246 226 214 211 207 221 234 226 202 210 208 216 215 224 226 228 231 239 244 251 254 253 253 253 244 241 232 223 227 226 222
273 277 278 278 276 275 276 270 274 280 313 314 318 321 331 317 321 322 316 326 328 316 310 307 296 306 302 296 284 265 251 258 266 261 218 207 208 218 225 200 199 213 211 211 215 219 219 218 222 230 236 241 246 244 243 246 238 230 229 225 225 222 224
270 271 275 277 278 276 279 279 274 292 309 316 315 315 320 320 310 317 318 309 297 301 304 301 306 300 304 309 305 293 272 265 265 268 264 205 214 221 220 211 209 207 206 211 215 216 217 220 221 226 228 233 236 237 236 234 234 229 226 225 225 223 222
267 267 272 279 281 278 278 276 266 302 312 316 314 312 312 314 317 319 323 306 288 296 291 288 289 290 301 304 304 302 305 308 291 288 286 226 216 222 216 211 207 203 202 208 211 212 215 216 221 227 231 233 233 235 232 233 229 228 224 226 228 226 225
271 272 277 282 287 284 279 268 286 288 307 317 314 313 312 312 315 317 314 306 286 274 279 287 279 286 301 306 305 301 299 302 313 298 308 318 263 223 218 208 207 202 202 206 208 213 219 222 223 227 232 232 231 234 233 229 228 225 221 223 226 226 227
273 274 279 279 280 284 281 264 274 279 290 316 315 314 312 313 314 315 313 307 290 265 263 285 301 306 307 310 322 335 339 334 324 349 30 18 4 299 214 206 200 201 199 205 208 210 215 221 224 225 232 237 239 248 240 225 229 224 224 224 228 233 226
276 273 270 271 275 286 274 274 275 280 281 298 299 300 308 313 312 311 310 307 301 299 301 305 314 320 336 348 358 4 7 9 12 23 21 20 20 13 306 214 195 194 197 202 206 210 217 227 232 231 235 239 239 239 237 225 229 216 224 206 206 170 223
271 274 274 265 277 272 288 301 293 292 293 290 289 282 290 299 299 306 309 300 288 287 276 302 346 16 0 358 12 21 22 25 18 20 17 16 14 14 17 359 305 206 197 201 204 211 218 227 230 232 231 232 227 231 236 217 216 209 217 194 201 196 199
267 262 273 281 280 293 290 288 298 310 308 296 294 296 294 296 303 302 285 285 283 266 328 23 18 21 17 5 13 14 15 18 22 22 13 16 18 21 20 16 16 29 21 16 297 244 236 228 224 227 229 229 225 229 233 213 205 210 215 198 193 175 212
261 268 263 262 295 315 297 315 312 306 302 305 311 311 318 321 310 294 278 272 279 83 47 45 35 28 23 19 8 10 17 14 17 19 17 11 20 14 17 26 31 26 17 355 350 346 336 300 290 256 238 227 225 226 227 203 208 210 212 199 184 191 206
248 280 5 304 300 321 319 315 301 303 310 312 312 320 322 318 310 314 347 28 71 73 68 47 48 24 21 20 5 7 17 12 8 10 12 11 22 15 14 31 23 26 359 353 341 326 301 285 269 264 269 268 246 234 223 205 199 209 204 192 184 199 211
352 358 356 356 355 335 325 309 306 311 312 315 321 326 326 318 318 344 352 21 60 46 46 51 51 31 17 17 5 5 3 4 357 7 6 7 360 6 12 15 13 10 350 341 338 322 312 293 285 281 283 272 280 269 231 198 198 207 196 198 199 204 207
3 360 353 347 341 327 299 311 317 318 321 330 333 330 329 318 345 13 19 26 69 77 58 44 63 44 30 20 16 8 1 359 355 354 359 351 354 359 357 356 347 348 339 317 320 307 315 309 302 294 291 291 290 286 268 224 203 199 203 210 208 208 203
3 357 352 347 341 332 327 334 331 331 341 341 342 338 334 319 25 39 37 46 47 40 39 32 42 55 36 29 18 5 355 357 353 353 348 348 348 343 338 332 323 328 318 311 303 315 286 287 293 295 288 282 280 273 267 244 219 205 205 208 208 208 199
354 349 354 349 349 340 351 350 352 358 357 0 357 354 348 358 36 49 44 52 45 36 30 19 17 19 29 17 23 11 6 0 356 352 344 337 334 327 321 319 316 330 328 325 325 319 300 300 288 288 291 285 275 271 271 257 229 210 202 203 205 199 193
326 333 344 350 352 347 4 4 11 17 16 19 20 17 23 45 37 28 15 29 29 30 27 25 18 1 356 354 16 11 6 356 351 354 351 341 329 326 320 317 321 328 333 330 331 326 318 306 305 303 292 287 286 283 274 264 239 218 207 205 202 200 188
277 281 311 347 2 7 10 14 25 30 31 34 35 36 38 49 37 39 29 28 26 28 20 21 12 4 345 353 7 358 354 349 347 355 350 334 330 326 318 314 315 330 331 328 320 312 312 319 313 300 296 288 275 266 263 265 262 233 214 209 206 197 189